DW4479 Weather Reports


Display with metric or nautical units.
time (UTC)temp
F
wind
direction
speed
MPH
gust
MPH
rain 1hr
in
rain 24hr
in
rain mn
in
humidity
%
barometer
mb
20180421125826 55 199 1.0 0.0 0.00 0.00 0.00 80 1019.2
20180421124325 55 344 1.0 0.0 0.00 0.00 0.00 81 1019.4
20180421122822 55 82 1.0 0.0 0.00 0.00 0.00 82 1019.6
20180421121320 54 308 1.0 0.0 0.00 0.00 0.00 83 1019.7
20180421115821 54 319 1.0 0.0 0.00 0.00 0.00 83 1019.9
20180421114316 54 325 0.0 0.0 0.00 0.00 0.00 84 1020.1
20180421112816 53 351 1.0 0.0 0.00 0.00 0.00 83 1020.3
20180421111312 54 311 1.0 0.0 0.00 0.00 0.00 84 1020.5
20180421105808 53 350 1.0 0.0 0.00 0.00 0.00 86 1020.5
20180421104307 53 314 2.0 0.0 0.00 0.00 0.00 85 1020.7
20180421102808 53 348 1.0 0.0 0.00 0.00 0.00 85 1020.9
20180421101302 53 306 1.0 0.0 0.00 0.00 0.00 86 1021.0
20180421095759 52 325 1.0 0.0 0.00 0.00 0.00 87 1021.1
20180421094300 51 360 1.0 0.0 0.00 0.00 0.00 87 1021.2
20180421092755 51 317 1.0 0.0 0.00 0.00 0.00 88 1021.3
20180421091251 51 329 1.0 0.0 0.00 0.00 0.00 89 1021.3
20180421085751 50 319 1.0 0.0 0.00 0.00 0.00 90 1021.3
20180421084247 49 13 1.0 0.0 0.00 0.00 0.00 92 1021.2
20180421082744 49 315 1.0 0.0 0.00 0.00 0.00 92 1021.1
20180421081243 49 331 0.0 0.0 0.00 0.00 0.00 93 1021.1
20180421075740 49 343 0.0 0.0 0.00 0.00 0.00 93 1021.0
20180421074238 48 10 0.0 0.0 0.00 0.00 0.00 94 1021.0
20180421072739 48 307 0.0 0.0 0.00 0.00 0.00 94 1021.1
20180421071236 48 349 0.0 0.0 0.00 0.00 0.00 95 1021.1
20180421065732 48 316 0.0 0.0 0.00 0.00 0.00 95 1021.1
20180421064231 47 360 0.0 0.0 0.00 0.00 0.00 95 1020.9
20180421062726 47 346 0.0 0.0 0.00 0.00 0.00 95 1020.8
20180421061225 47 355 0.0 0.0 0.00 0.00 0.00 95 1020.8
20180421055725 47 327 0.0 0.0 0.00 0.00 0.00 94 1020.7
20180421054221 46 348 0.0 0.0 0.00 0.00 0.00 94 1020.7
20180421052722 46 348 0.0 0.0 0.00 0.00 0.00 94 1020.6
20180421051216 46 348 0.0 0.0 0.00 0.00 0.00 94 1020.6
20180421045715 46 348 0.0 0.0 0.00 0.00 0.00 93 1020.3
20180421044219 46 348 0.0 0.0 0.00 0.00 0.00 93 1020.3
20180421042712 46 348 0.0 0.0 0.00 0.00 0.00 93 1020.1
20180421041213 47 348 0.0 0.0 0.00 0.00 0.00 93 1020.1
20180421035711 47 348 0.0 0.0 0.00 0.00 0.00 93 1020.3
20180421034208 47 348 0.0 0.0 0.00 0.00 0.00 93 1020.3
20180421032710 47 355 0.0 0.0 0.00 0.00 0.00 92 1020.3
20180421031206 47 322 0.0 0.0 0.00 0.00 0.00 92 1020.3
20180421025708 47 321 0.0 0.0 0.00 0.00 0.00 92 1020.6
20180421024208 47 321 0.0 0.0 0.00 0.00 0.00 92 1020.8
20180421022704 47 321 0.0 0.0 0.00 0.00 0.00 92 1020.7
20180421021201 47 321 0.0 0.0 0.00 0.00 0.00 92 1020.8
20180421015700 48 321 0.0 0.0 0.00 0.00 0.00 92 1020.9
20180421014159 48 321 0.0 0.0 0.00 0.00 0.00 92 1021.0
20180421012700 48 321 0.0 0.0 0.00 0.00 0.00 92 1021.1
20180421011158 47 321 0.0 0.0 0.00 0.00 0.00 92 1021.1
20180421005657 47 321 0.0 0.0 0.00 0.00 0.00 92 1021.2
20180421004156 47 321 0.0 0.0 0.00 0.00 0.00 91 1021.3
20180421002653 47 321 0.0 0.0 0.00 0.00 0.00 91 1021.3
20180421001153 48 321 0.0 0.0 0.00 0.00 0.00 91 1021.4
20180420235655 48 321 0.0 0.0 0.00 0.00 0.00 91 1021.3
20180420234151 48 321 0.0 0.0 0.00 0.00 0.00 91 1021.3
20180420232652 48 321 0.0 0.0 0.00 0.00 0.00 91 1021.4
20180420231149 48 321 0.0 0.0 0.00 0.00 0.00 91 1021.4
20180420225648 48 321 0.0 0.0 0.00 0.00 0.00 90 1021.4
20180420224146 48 321 0.0 0.0 0.00 0.00 0.00 90 1021.3
20180420222643 48 321 0.0 0.0 0.00 0.00 0.00 90 1021.3
20180420221147 48 321 0.0 0.0 0.00 0.00 0.00 90 1021.2
20180420215643 49 321 0.0 0.0 0.00 0.00 0.00 90 1021.2
20180420214142 49 321 0.0 0.0 0.00 0.00 0.00 90 1021.3
20180420212641 49 321 0.0 0.0 0.00 0.00 0.00 89 1021.3
20180420211145 49 321 0.0 0.0 0.00 0.00 0.00 89 1021.3
20180420205640 49 321 0.0 0.0 0.00 0.00 0.00 89 1021.1
20180420204140 49 321 0.0 0.0 0.00 0.00 0.00 89 1021.1
20180420202637 49 321 0.0 0.0 0.00 0.00 0.00 89 1021.2
20180420201140 49 355 0.0 0.0 0.00 0.00 0.00 89 1021.2
20180420195637 49 355 0.0 0.0 0.00 0.00 0.00 88 1021.2
20180420194136 49 355 0.0 0.0 0.00 0.00 0.00 88 1021.2
20180420192633 50 355 0.0 0.0 0.00 0.00 0.00 88 1021.2
20180420191138 50 355 0.0 0.0 0.00 0.00 0.00 88 1020.9
20180420185633 50 5 0.0 0.0 0.00 0.00 0.00 87 1020.9
20180420184132 50 355 0.0 0.0 0.00 0.00 0.00 86 1020.9
20180420182629 51 327 0.0 0.0 0.00 0.00 0.00 86 1020.7
20180420181128 51 325 0.0 0.0 0.00 0.00 0.00 84 1020.6
20180420175628 52 350 0.0 0.0 0.00 0.00 0.00 83 1020.6
20180420174128 53 344 0.0 0.0 0.00 0.00 0.00 82 1020.6
20180420172630 54 306 0.0 0.0 0.00 0.00 0.00 82 1020.6
20180420171126 54 323 1.0 0.0 0.00 0.00 0.00 82 1020.6
20180420165630 54 330 0.0 0.0 0.00 0.00 0.00 82 1020.6
20180420164127 54 327 1.0 0.0 0.00 0.00 0.00 82 1020.7
20180420162626 54 65 1.0 0.0 0.00 0.00 0.00 81 1020.6
20180420161124 56 301 1.0 0.0 0.00 0.00 0.00 80 1020.7
20180420155625 56 336 1.0 0.0 0.00 0.00 0.00 80 1020.5
20180420154123 56 337 1.0 0.0 0.00 0.00 0.00 80 1020.6
20180420152622 57 65 1.0 0.0 0.00 0.00 0.00 79 1020.5
20180420151122 56 337 1.0 0.0 0.00 0.00 0.00 79 1020.5
20180420145622 57 310 1.0 0.0 0.00 0.00 0.00 79 1020.6
20180420144123 57 350 1.0 0.0 0.00 0.00 0.00 78 1020.5
20180420142619 58 344 1.0 0.0 0.00 0.00 0.00 76 1020.4
20180420141119 59 306 0.0 0.0 0.00 0.00 0.00 76 1020.3
20180420135621 58 282 0.0 0.0 0.00 0.00 0.00 75 1020.3
20180420134118 58 31 0.0 0.0 0.00 0.00 0.00 75 1020.3
20180420132619 58 346 0.0 0.0 0.00 0.00 0.00 75 1020.2
20180420131118 57 13 0.0 0.0 0.00 0.00 0.00 76 1020.2